Weather History for Racine, WI

Change the Weather History Date:

Tuesday, November 13, 2012

  Actual Average Record
Temperature  
Mean Temperature 29 °F -  
Max Temperature 37 °F 43 °F 69 °F (1999)
Min Temperature 21 °F 30 °F 6 °F (1986)
Degree Days  
Heating Degree Days 36    
Moisture  
Dew Point 19 °F    
Average Humidity 66    
Maximum Humidity 81    
Minimum Humidity 47    
Precipitation  
Precipitation 0.00 in - - ()
Sea Level Pressure  
Sea Level Pressure 30.48 in    
Wind  
Wind Speed 4 mph (SW)    
Max Wind Speed 7 mph    
Max Gust Speed -    
Visibility 10 miles    
Events      
Averages and records for this station are not official NWS values.
T = Trace of Precipitation, MM = Missing Value Source: NWS Daily Summary

Daily Weather History Graph

Daily Weather History Graph

Search for Another Location

Airport:

Trip Planner

Search our weather history database for the weather conditions in past years. The results will help you decide how hot, cold, wet, or windy it might be!

Date:

Astronomy

Nov. 13, 2012 Rise Set
Actual Time 6:41 AM CST 4:29 PM CST
Civil Twilight 6:10 AM CST 4:59 PM CST
Nautical Twilight 5:36 AM CST 5:34 PM CST
Astronomical Twilight 5:03 AM CST 6:07 PM CST
Moon 6:19 AM CST (11/13) 4:21 PM CST (11/13)
Length of Visible Light 10h 49m
Length of Day
9h 48m
Waning Crescent, 0% of the Moon is Illuminated
Nov 13
Waning Crescent
Nov 13
New
Nov 20
First Quarter
Nov 28
Full
Dec 6
Last Quarter

Hourly Weather History & Observations

Time (CST) Temp. Windchill Dew Point Humidity Pressure Visibility Wind Dir Wind Speed Gust Speed Precip Events Conditions
12:53 AM 25.0 °F 18.1 °F 14.0 °F 63% 30.36 in 10.0 mi West 5.8 mph - N/A   Clear
1:53 AM 24.1 °F 18.2 °F 14.0 °F 65% 30.38 in 10.0 mi West 4.6 mph - N/A   Clear
3:53 AM 21.9 °F 17.2 °F 16.0 °F 78% 30.40 in 10.0 mi WSW 3.5 mph - N/A   Clear
4:53 AM 21.0 °F 16.2 °F 16.0 °F 81% 30.44 in 10.0 mi SW 3.5 mph - N/A   Clear
5:53 AM 21.0 °F 16.2 °F 16.0 °F 81% 30.45 in 10.0 mi West 3.5 mph - N/A   Clear
6:53 AM 21.0 °F - 16.0 °F 81% 30.47 in 10.0 mi Calm Calm - N/A   Clear
7:53 AM 23.0 °F 18.4 °F 17.1 °F 78% 30.49 in 10.0 mi WSW 3.5 mph - N/A   Clear
8:53 AM 27.0 °F 21.6 °F 19.0 °F 72% 30.50 in 10.0 mi WSW 4.6 mph - N/A   Clear
9:53 AM 30.0 °F 24.1 °F 19.0 °F 64% 30.52 in 10.0 mi SW 5.8 mph - N/A   Clear
10:53 AM 33.1 °F 26.9 °F 19.0 °F 56% 30.51 in 10.0 mi WSW 6.9 mph - N/A   Clear
11:53 AM 35.1 °F 30.1 °F 19.0 °F 52% 30.49 in 10.0 mi SSW 5.8 mph - N/A   Clear
12:53 PM 37.0 °F 31.6 °F 19.0 °F 48% 30.47 in 10.0 mi SSW 6.9 mph - N/A   Clear
1:53 PM 37.9 °F 33.5 °F 19.0 °F 47% 30.46 in 10.0 mi WSW 5.8 mph - N/A   Clear
2:53 PM 37.9 °F 34.4 °F 19.0 °F 47% 30.47 in 10.0 mi WSW 4.6 mph - N/A   Clear
3:53 PM 37.0 °F 31.6 °F 19.0 °F 48% 30.48 in 10.0 mi WSW 6.9 mph - N/A   Clear
4:53 PM 35.1 °F 32.2 °F 19.9 °F 54% 30.49 in 10.0 mi SW 3.5 mph - N/A   Clear
5:53 PM 33.1 °F 30.0 °F 21.0 °F 61% 30.50 in 10.0 mi SW 3.5 mph - N/A   Clear
6:53 PM 30.9 °F - 21.9 °F 69% 30.50 in 10.0 mi Calm Calm - N/A   Clear
7:53 PM 28.9 °F - 21.9 °F 75% 30.51 in 10.0 mi Calm Calm - N/A   Clear
8:53 PM 30.0 °F 26.5 °F 23.0 °F 75% 30.51 in 10.0 mi South 3.5 mph - N/A   Clear
9:53 PM 30.9 °F 26.2 °F 21.9 °F 69% 30.51 in 10.0 mi SW 4.6 mph - N/A   Clear
10:53 PM 28.9 °F 22.8 °F 21.0 °F 72% 30.51 in 10.0 mi SW 5.8 mph - N/A   Clear
11:53 PM 28.9 °F 23.9 °F 21.0 °F 72% 30.52 in 10.0 mi SSW 4.6 mph - N/A   Clear